Regional Weather Roundup
Issued by NWS

Home | Current Version | Previous Version | Text Only | Print | Product List | Glossary Off
Versions: 1 2 3 4 5 6 7 8 9 10 11 12 13 14 15 16 17 18 19 20 21 22 23 24 25 26 27 28 29 30 31 32 33 34 35 36 37 38 39 40 41 42 43 44 45 46 47 48 49 50

729
ASUS43 KLSX 161110
RWRMO

WEATHER SUMMARY FOR MISSOURI
NATIONAL WEATHER SERVICE SPRINGFIELD MO
500 AM CST MON JAN 16 2017

NOTE: "FAIR" INDICATES FEW OR NO CLOUDS BELOW 12,000 FEET WITH NO
       SIGNIFICANT WEATHER AND/OR OBSTRUCTIONS TO VISIBILITY.
       CURRENT SKY AND/OR WEATHER CONDITIONS ARE NOT AVAILABLE FOR
       CHILLICOTHE AND FARMINGTON.

MOZ001>031-035>038-043-044-053-054-161200-
...NORTHERN AND WESTERN MISSOURI...

CITY           SKY/WX    TMP DP  RH WIND       PRES   REMARKS
KANSAS CTY INT HVY RAIN  33  31  92 E16       29.96F FOG     WCI  23
KANSAS C DTWN  RAIN      34  34 100 E12       29.97F FOG     WCI  25
LEE`S SUMMIT   RAIN      35  32  88 E12       29.97F WCI  27
ST JOSEPH      RAIN      33  33 100 E8        30.00F FOG     WCI  26
CHILLICOTHE      N/A     33  32  96 E7        30.07F WCI  27
KIRKSVILLE     FRZ RAIN  32  32 100 E10       30.10F VSB 1/2 WCI  24

$$
MOZ066>068-077>081-088>096-101>105-161200-
...SOUTHWEST MISSOURI...

CITY           SKY/WX    TMP DP  RH WIND       PRES   REMARKS
SPRINGFIELD    RAIN      47  45  93 SE21      29.99F
JOPLIN         MOCLDY    52  51  97 MISG      29.86F
BRANSON        LGT RAIN  41  41 100 E13       30.03F VSB<1/4

$$
MOZ032>034-039>042-045>050-055>058-069>072-161200-
...CENTRAL MISSOURI...

CITY           SKY/WX    TMP DP  RH WIND       PRES   REMARKS
COLUMBIA       CLOUDY    37  37 100 E10       30.06F FOG     WCI  30
JEFFERSON CITY CLOUDY    38  37  97 E8        30.08F
ROLLA          FOG       37  37 100 SE9       30.06F VSB 1/2
SEDALIA        LGT RAIN  39  38  96 E9        30.03F FOG
WHITEMAN AFB   LGT RAIN  37  37 100 E6        29.99F FOG
WARRENSBURG    RAIN      36  36 100 E10       29.99F WCI  28
OSAGE BEACH    LGT RAIN  43  42  97 E7        30.04F

$$
MOZ051-052-059>065-161200-
...EAST CENTRAL MISSOURI...

CITY           SKY/WX    TMP DP  RH WIND       PRES   REMARKS
ST LOUIS INTL  FOG       39  37  92 E8        30.14F VSB 1/4
SPIRIT OF STL  CLOUDY    39  39 100 E7        30.14F FOG
ST CHARLES     FOG       38  38 100 E8        30.15F VSB 1/2

$$
MOZ072>076-082>087-097>100-106>115-161200-
...SOUTH CENTRAL AND SOUTHEAST MISSOURI...

CITY           SKY/WX    TMP DP  RH WIND       PRES   REMARKS
CAPE GIRARDEAU FOG       42  41  96 NE5       30.15F VSB 1/4
FARMINGTON     LGT RAIN  39  39 100 CALM      30.13S VSB 1/4
POPLAR BLUFF   FOG       42  42 100 NE3       30.14S VSB 1/2
WEST PLAINS    FOG       43  42  97 E6        30.09F VSB 1/2

$$




USA.gov is the U.S. government's official web portal to all federal, state and local government web resources and services.